User: anonymous   Login
Location: St. Louis
(38.6270°N, 90.1994°W)
Time: 23:38:15
(UTC-06:00)
Language:

DX 1 - Orbit

View from above orbital plane
View from above orbital plane
View from above satellite
View from above satellite

Ground track
Ground track

The orbit data is extracted from the following two-line orbital elements,

1 40071U 14037C   22026.79659055  .00000376  00000-0  55274-4 0  9998
2 40071  98.4275 248.3264 0009572  55.9235 304.2884 14.81634561408369
Epoch (UTC): 26 January 2022 19:07:05
Eccentricity: 0.0009572
inclination: 98.4275°
perigee height: 617 km
apogee height: 631 km
right ascension of ascending node: 248.3264°
argument of perigee: 55.9235°
revolutions per day: 14.81634561
mean anomaly at epoch: 304.2884°
orbit number at epoch: 40836

The dashed part of the orbit path shows where the satellite is in the earth's shadow,  

DLR